Regional Weather Roundup
Issued by NWS Memphis, TN

Home | Current Version | Previous Version | Text Only | Print | Product List | Glossary On
Versions: 1 2 3 4 5 6 7 8 9 10 11 12 13 14 15 16 17 18 19 20 21 22 23 24 25 26 27 28 29 30 31 32 33 34 35 36 37 38 39 40 41 42 43 44 45 46 47 48 49 50
000
ASUS44 KMEG 301810
RWRMEG
MEMPHIS CWA HOURLY WEATHER ROUNDUP
NATIONAL WEATHER SERVICE MEMPHIS TN
100 PM CDT SUN AUG 30 2015

...WEST TENNESSEE...

CITY           SKY/WX    TMP DP  RH WIND       PRES   REMARKS
MEMPHIS INTL   PTSUNNY   83  72  69 VRB5      30.06F
6HR MIN TEMP:  74; 6HR MAX TEMP:  83;

NWS MEMPHIS      N/A     87 N/A N/A MISG        N/A
JACKSON        MOSUNNY   85  71  63 VRB5      30.08F HX  90
6HR MIN TEMP:  70; 6HR MAX TEMP:  85;

LEXINGTON      MOSUNNY   82  70  65 S8        30.09F
DYERSBURG      PTSUNNY  N/A N/A N/A MISG        N/A
UNION CITY     SUNNY     79  72  78 SE5       30.07F
PARIS          MOSUNNY   82  70  65 E7        30.09F


...EASTERN ARKANSAS...

CITY           SKY/WX    TMP DP  RH WIND       PRES   REMARKS
JONESBORO      PTSUNNY   85  70  60 SE8       30.04F
6HR MIN TEMP:  68; 6HR MAX TEMP:  85;

WEST MEMPHIS   PTSUNNY   85  68  56 S10       30.03F
6HR MIN TEMP:  73; 6HR MAX TEMP:  85; 6HR PCP: TRACE;

BATESVILLE     SUNNY     88  72  58 E6        30.03F HX  94
6HR MIN TEMP:  64; 6HR MAX TEMP:  88;

NEWPORT        MOSUNNY   87  73  62 CALM      30.05F HX  94
6HR MIN TEMP:  70; 6HR MAX TEMP:  87;

WALNUT RIDGE   MOSUNNY   84  72  65 SE8       30.04F
6HR MIN TEMP:  72; 6HR MAX TEMP:  84;

BLYTHEVILLE    MOSUNNY   84  73  69 S6        30.06F HX  90
6HR MIN TEMP:  74; 6HR MAX TEMP:  85; 6HR PCP:  0.06;

SEARCY         SUNNY     91  69  48 VRB6      30.04F HX  96
6HR MIN TEMP:  66; 6HR MAX TEMP:  92;

STUTTGART      SUNNY     90  68  48 SE8       30.03S HX  93
6HR MIN TEMP:  72; 6HR MAX TEMP:  91;

PINE BLUFF     SUNNY     91  65  41 E3        30.02F HX  93
6HR MIN TEMP:  66; 6HR MAX TEMP:  91;

MONTICELLO     SUNNY     92  64  39 CALM      30.02F HX  93
6HR MIN TEMP:  71; 6HR MAX TEMP:  93;



...NORTH MISSISSIPPI...

CITY           SKY/WX    TMP DP  RH WIND       PRES   REMARKS
TUPELO         CLOUDY    83  70  64 SE9       30.09F
6HR MIN TEMP:  71; 6HR MAX TEMP:  83;

OXFORD         MOSUNNY   84  68  58 S7        30.09S
OLIVE BRANCH   PTSUNNY   84  72  65 CALM      30.07F
TUNICA         PTSUNNY   84  72  65 E3        30.06F
CLARKSDALE     PTSUNNY   88  72  58 E5        30.04F HX  94
CORINTH        MOSUNNY   82  70  65 SE10      30.09F
GREENWOOD      SUNNY     90  63  40 CALM      30.03F HX  91
6HR MIN TEMP:  70; 6HR MAX TEMP:  91;

COLUMBUS       MOSUNNY   80  68  67 E8        30.09F
6HR MIN TEMP:  71; 6HR MAX TEMP:  80;

STARKVILLE     MOCLDY    82  70  65 SE9       30.08F
GOLDEN TRIANGL CLOUDY    81  68  65 E9        30.09F


...SOUTHEAST MISSOURI...

CITY           SKY/WX    TMP DP  RH WIND       PRES   REMARKS
WEST PLAINS    MOSUNNY   82  69  64 S9        30.08F
6HR MIN TEMP:  68; 6HR MAX TEMP:  82;

POPLAR BLUFF   MOSUNNY   84  72  67 S6        30.04F
6HR MIN TEMP:  66; 6HR MAX TEMP:  84;

CAPE GIRARDEAU PTSUNNY   80  71  74 S7        30.06F
6HR MIN TEMP:  70; 6HR MAX TEMP:  81;



...NORTHWEST ALABAMA...

CITY           SKY/WX    TMP DP  RH WIND       PRES   REMARKS
MUSCLE SHOALS  LGT RAIN  73  69  87 E8        30.15F
6HR MIN TEMP:  69; 6HR MAX TEMP:  73; 6HR PCP: TRACE;



...MIDDLE TENNESSEE...

CITY           SKY/WX    TMP DP  RH WIND       PRES   REMARKS
NASHVILLE      PTSUNNY   78  67  68 S10       30.15F
6HR MIN TEMP:  70; 6HR MAX TEMP:  81;

CLARKSVILLE    PTSUNNY   83  67  58 S8        30.11F
6HR MIN TEMP:  66; 6HR MAX TEMP:  83;

COLUMBIA       MOSUNNY   79  72  78 S8        30.13F


...WESTERN KENTUCKY...

CITY           SKY/WX    TMP DP  RH WIND       PRES   REMARKS
PADUCAH        CLOUDY    82  71  69 VRB3      30.07F
6HR MIN TEMP:  70; 6HR MAX TEMP:  82;

FORT CAMPBELL  PTSUNNY   83  69  62 VRB7      30.10F
6HR MIN TEMP:  67; 6HR MAX TEMP:  83; 6HR PCP: TRACE;



...CENTRAL ARKANSAS...

CITY           SKY/WX    TMP DP  RH WIND       PRES   REMARKS
LITTLE ROCK    MOSUNNY   93  63  36 VRB7      30.02F HX  94
6HR MIN TEMP:  69; 6HR MAX TEMP:  94;



SKY/WX REPORTED AS FAIR MEANS FEW OR NO CLOUDS BELOW
12 THOUSAND FEET.



USA.gov is the U.S. government's official web portal to all federal, state and local government web resources and services.